Tracking 18945 objects as of 19-Jan-2018
HD Live streaming from Space Station
objects crossing your sky now

FENGYUN 1C DEB

Track FENGYUN 1C DEB now!
10-day predictions


NORAD ID: 31066
Int'l Code: 1999-025BFL
Perigee: 474.0 km
Apogee: 738.7 km
Inclination: 99.0 °
Period: 96.7 minutes
Semi major axis: 6977 km
RCS: 0.002 m2 (small)
Launch date: May 10, 1999
Source: People's Republic of China (PRC)
Launch site: Taiyaun Space Center, China (TSC)

Note: This is SATELLITE DEBRIS
aabbcc
Your satellite tracking list
Your tracking list is empty




NASA's NSSDC Master Catalog

Two Line Element Set (TLE):
1 31066U 99025BFL 18018.80060545 +.00000652 +00000-0 +55495-4 0  9992
2 31066 099.0041 144.1408 0189685 043.7972 317.8109 14.89597863584457
Source of the keplerian elements: AFSPC